Location: Newark
(48.5667°N, 7.8167°E)
Time: 23:01:59
(UTC+00:00)

CZ-6 R/B - Pass Details

Date: 01 December 2021
Orbit: 384 x 499 km, 97.7° (Epoch: 22 January)

Event Time Altitude Azimuth Distance (km) Brightness Sun altitude
Exits shadow 17:31:24 - 355° (N) 2,258 ? -18.4°
Reaches altitude 10° 17:33:44 10° 333° (NNW) 1,481 ? -18.8°
Maximum altitude 17:35:36 15° 297° (WNW) 1,197 ? -19.1°
Drops below altitude 10° 17:37:27 10° 260° (W) 1,446 ? -19.4°
Sets 17:39:58 0° 235° (SW) 2,282 ? -19.8°
